TimeCDT,TemperatureF,Dew PointF,Humidity,Sea Level PressureIn,VisibilityMPH,Wind Direction,Wind SpeedMPH,Gust SpeedMPH,PrecipitationIn,Events,Conditions,WindDirDegrees,DateUTC
12:53 AM,46.9,39.0,74,29.90,10.0,South,4.6,-,N/A,,Clear,180,2012-10-03 05:53:00
1:53 AM,46.0,37.9,73,29.90,10.0,South,6.9,-,N/A,,Clear,170,2012-10-03 06:53:00
2:53 AM,46.0,39.0,76,29.90,10.0,South,5.8,-,N/A,,Clear,180,2012-10-03 07:53:00
3:53 AM,46.9,39.0,74,29.89,10.0,South,8.1,-,N/A,,Clear,170,2012-10-03 08:53:00
4:53 AM,46.0,39.0,76,29.90,10.0,South,10.4,-,N/A,,Clear,170,2012-10-03 09:53:00
5:53 AM,45.0,39.0,80,29.91,10.0,South,6.9,-,N/A,,Clear,170,2012-10-03 10:53:00
6:53 AM,43.0,37.9,82,29.92,10.0,South,8.1,-,N/A,,Clear,170,2012-10-03 11:53:00
7:53 AM,45.0,39.0,80,29.92,10.0,South,8.1,-,N/A,,Clear,170,2012-10-03 12:53:00
8:53 AM,52.0,42.1,69,29.92,10.0,South,8.1,-,N/A,,Clear,170,2012-10-03 13:53:00
9:53 AM,63.0,43.0,48,29.91,10.0,South,10.4,-,N/A,,Clear,180,2012-10-03 14:53:00
10:53 AM,71.1,41.0,34,29.89,10.0,South,15.0,24.2,N/A,,Clear,180,2012-10-03 15:53:00
11:53 AM,75.9,41.0,29,29.88,10.0,South,17.3,27.6,N/A,,Clear,190,2012-10-03 16:53:00
12:53 PM,79.0,43.0,28,29.85,10.0,South,15.0,29.9,N/A,,Clear,180,2012-10-03 17:53:00
1:53 PM,80.1,44.1,28,29.83,10.0,South,20.7,28.8,N/A,,Clear,170,2012-10-03 18:53:00
2:53 PM,82.0,45.0,27,29.81,10.0,South,18.4,29.9,N/A,,Clear,170,2012-10-03 19:53:00
3:53 PM,82.9,46.0,27,29.79,10.0,South,20.7,33.4,N/A,,Clear,170,2012-10-03 20:53:00
4:53 PM,82.0,46.0,28,29.78,10.0,South,18.4,28.8,N/A,,Clear,180,2012-10-03 21:53:00
5:53 PM,81.0,46.9,30,29.80,10.0,South,17.3,28.8,N/A,,Clear,180,2012-10-03 22:53:00
6:53 PM,78.1,48.0,35,29.80,10.0,South,13.8,24.2,N/A,,Clear,180,2012-10-03 23:53:00
7:53 PM,73.4,48.2,41,29.82,10.0,SSE,13.8,-,N/A,,Clear,160,2012-10-04 00:53:00
8:53 PM,71.1,48.9,45,29.83,10.0,SSE,12.7,-,N/A,,Clear,160,2012-10-04 01:53:00
9:53 PM,71.1,48.9,45,29.82,10.0,South,16.1,25.3,N/A,,Clear,180,2012-10-04 02:53:00
10:53 PM,72.0,50.0,46,29.84,10.0,South,19.6,29.9,N/A,,Clear,190,2012-10-04 03:53:00
11:53 PM,70.0,50.0,49,29.92,10.0,Calm,Calm,-,N/A,,Clear,0,2012-10-04 04:53:00